Time,TemperatureF,DewpointF,PressureIn,WindDirection,WindDirectionDegrees,WindSpeedMPH,WindSpeedGustMPH,Humidity,HourlyPrecipIn,Conditions,Clouds,dailyrainin,SoftwareType,DateUTC
2013-03-26 00:02:00,43.5,41.0,29.20,WNW,292,0.0,-999.0,91,0.00,,,0.00,Rainwise IP-100,2013-03-26 07:02:00,
2013-03-26 00:07:00,43.6,42.0,29.20,WNW,292,0.0,-999.0,92,0.00,,,0.00,Rainwise IP-100,2013-03-26 07:07:00,
2013-03-26 00:12:00,43.7,42.0,29.20,WNW,292,0.0,-999.0,93,0.00,,,0.00,Rainwise IP-100,2013-03-26 07:12:00,
2013-03-26 00:17:00,43.5,42.0,29.20,WNW,292,1.2,-999.0,93,0.00,,,0.00,Rainwise IP-100,2013-03-26 07:17:00,
2013-03-26 00:22:00,43.1,41.0,29.20,WNW,292,1.6,-999.0,92,0.00,,,0.00,Rainwise IP-100,2013-03-26 07:22:00,
2013-03-26 00:27:00,42.8,41.0,29.20,WNW,292,0.0,-999.0,92,0.00,,,0.00,Rainwise IP-100,2013-03-26 07:27:00,
2013-03-26 00:32:00,42.6,41.0,29.20,WNW,292,1.6,-999.0,93,0.00,,,0.00,Rainwise IP-100,2013-03-26 07:32:00,
2013-03-26 00:37:00,42.4,40.0,29.19,WNW,292,0.0,-999.0,93,0.00,,,0.00,Rainwise IP-100,2013-03-26 07:37:00,
2013-03-26 00:42:00,42.3,40.0,29.19,WNW,292,0.0,-999.0,93,0.00,,,0.00,Rainwise IP-100,2013-03-26 07:42:00,
2013-03-26 00:47:00,42.2,40.0,29.19,WSW,247,2.3,-999.0,94,0.00,,,0.00,Rainwise IP-100,2013-03-26 07:47:00,
2013-03-26 00:52:00,41.9,40.0,29.19,WSW,247,1.6,-999.0,94,0.00,,,0.00,Rainwise IP-100,2013-03-26 07:52:00,
2013-03-26 00:57:00,41.8,40.0,29.19,WSW,247,1.2,-999.0,94,0.00,,,0.00,Rainwise IP-100,2013-03-26 07:57:00,
2013-03-26 01:02:00,41.8,41.0,29.19,WSW,247,0.0,-999.0,95,0.00,,,0.00,Rainwise IP-100,2013-03-26 08:02:00,
2013-03-26 01:07:00,41.8,41.0,29.19,WSW,247,0.0,-999.0,95,0.00,,,0.00,Rainwise IP-100,2013-03-26 08:07:00,
2013-03-26 01:12:00,41.6,41.0,29.19,WSW,247,0.0,-999.0,95,0.00,,,0.00,Rainwise IP-100,2013-03-26 08:12:00,
2013-03-26 01:17:00,41.6,41.0,29.19,WSW,247,0.0,-999.0,96,0.00,,,0.00,Rainwise IP-100,2013-03-26 08:17:00,
2013-03-26 01:22:00,41.3,40.0,29.19,WSW,247,0.0,-999.0,96,0.00,,,0.00,Rainwise IP-100,2013-03-26 08:22:00,
2013-03-26 01:27:00,41.0,40.0,29.19,WSW,247,0.0,-999.0,96,0.00,,,0.00,Rainwise IP-100,2013-03-26 08:27:00,
2013-03-26 01:32:00,40.9,40.0,29.20,WSW,247,0.0,-999.0,96,0.00,,,0.00,Rainwise IP-100,2013-03-26 08:32:00,
2013-03-26 01:37:00,40.9,40.0,29.20,WSW,247,0.0,-999.0,96,0.00,,,0.00,Rainwise IP-100,2013-03-26 08:37:00,
2013-03-26 01:42:00,41.0,40.0,29.20,WSW,247,0.0,-999.0,96,0.00,,,0.00,Rainwise IP-100,2013-03-26 08:42:00,
2013-03-26 01:47:00,41.1,40.0,29.20,WSW,247,0.0,-999.0,96,0.00,,,0.00,Rainwise IP-100,2013-03-26 08:47:00,
2013-03-26 01:52:00,40.9,40.0,29.20,WSW,247,0.0,-999.0,96,0.00,,,0.00,Rainwise IP-100,2013-03-26 08:52:00,
2013-03-26 01:57:00,40.5,40.0,29.20,WSW,247,1.6,-999.0,96,0.00,,,0.00,Rainwise IP-100,2013-03-26 08:57:00,
2013-03-26 02:02:00,40.1,39.0,29.20,WSW,247,0.0,-999.0,96,0.00,,,0.00,Rainwise IP-100,2013-03-26 09:02:00,
2013-03-26 02:07:00,40.1,39.0,29.19,WSW,247,1.4,-999.0,96,0.00,,,0.00,Rainwise IP-100,2013-03-26 09:07:00,
2013-03-26 02:12:00,40.2,39.0,29.19,WSW,247,0.0,-999.0,96,0.00,,,0.00,Rainwise IP-100,2013-03-26 09:12:00,
2013-03-26 02:17:00,40.2,39.0,29.20,WSW,247,0.0,-999.0,96,0.00,,,0.00,Rainwise IP-100,2013-03-26 09:17:00,
2013-03-26 02:22:00,40.1,39.0,29.20,WSW,247,1.2,-999.0,96,0.00,,,0.00,Rainwise IP-100,2013-03-26 09:22:00,
2013-03-26 02:27:00,40.0,39.0,29.19,WSW,247,0.0,-999.0,96,0.00,,,0.00,Rainwise IP-100,2013-03-26 09:27:00,
2013-03-26 02:32:00,40.0,39.0,29.19,WSW,247,1.6,-999.0,96,0.00,,,0.00,Rainwise IP-100,2013-03-26 09:32:00,
2013-03-26 02:37:00,40.0,39.0,29.20,WSW,247,0.0,-999.0,96,0.00,,,0.00,Rainwise IP-100,2013-03-26 09:37:00,
2013-03-26 02:42:00,40.2,39.0,29.20,WSW,247,0.0,-999.0,97,0.00,,,0.00,Rainwise IP-100,2013-03-26 09:42:00,
2013-03-26 02:47:00,40.1,39.0,29.20,WSW,247,0.0,-999.0,97,0.00,,,0.00,Rainwise IP-100,2013-03-26 09:47:00,
2013-03-26 02:52:00,40.0,39.0,29.19,WSW,247,0.0,-999.0,97,0.00,,,0.00,Rainwise IP-100,2013-03-26 09:52:00,
2013-03-26 02:57:00,39.8,39.0,29.20,WSW,247,1.6,-999.0,97,0.00,,,0.00,Rainwise IP-100,2013-03-26 09:57:00,
2013-03-26 03:02:00,39.4,38.0,29.19,WSW,247,0.0,-999.0,97,0.00,,,0.00,Rainwise IP-100,2013-03-26 10:02:00,
2013-03-26 03:07:00,39.2,38.0,29.19,WSW,247,0.0,-999.0,97,0.00,,,0.00,Rainwise IP-100,2013-03-26 10:07:00,
2013-03-26 03:12:00,39.1,38.0,29.19,WSW,247,1.2,-999.0,97,0.00,,,0.00,Rainwise IP-100,2013-03-26 10:12:00,
2013-03-26 03:17:00,39.2,38.0,29.19,WSW,247,0.0,-999.0,97,0.00,,,0.00,Rainwise IP-100,2013-03-26 10:17:00,
2013-03-26 03:22:00,39.2,38.0,29.19,WSW,247,0.0,-999.0,97,0.00,,,0.00,Rainwise IP-100,2013-03-26 10:22:00,
2013-03-26 03:27:00,38.9,38.0,29.19,WSW,247,0.0,-999.0,97,0.00,,,0.00,Rainwise IP-100,2013-03-26 10:27:00,
2013-03-26 03:32:00,38.8,38.0,29.19,WSW,247,0.0,-999.0,97,0.00,,,0.00,Rainwise IP-100,2013-03-26 10:32:00,
2013-03-26 03:37:00,38.9,39.0,29.19,WSW,247,1.4,-999.0,98,0.00,,,0.00,Rainwise IP-100,2013-03-26 10:37:00,
2013-03-26 03:42:00,38.7,39.0,29.18,WSW,247,0.0,-999.0,98,0.00,,,0.00,Rainwise IP-100,2013-03-26 10:42:00,
2013-03-26 03:48:00,38.7,39.0,29.18,WSW,247,0.0,-999.0,98,0.00,,,0.00,Rainwise IP-100,2013-03-26 10:48:00,
2013-03-26 03:53:00,38.7,39.0,29.19,WSW,247,0.0,-999.0,98,0.00,,,0.00,Rainwise IP-100,2013-03-26 10:53:00,
2013-03-26 03:58:00,38.5,39.0,29.18,WSW,247,0.0,-999.0,98,0.00,,,0.00,Rainwise IP-100,2013-03-26 10:58:00,
2013-03-26 04:03:00,38.3,38.0,29.19,WSW,247,0.0,-999.0,98,0.00,,,0.00,Rainwise IP-100,2013-03-26 11:03:00,
2013-03-26 04:08:00,38.1,38.0,29.19,WSW,247,1.9,-999.0,98,0.00,,,0.00,Rainwise IP-100,2013-03-26 11:08:00,
2013-03-26 04:13:00,37.8,38.0,29.18,WSW,247,1.4,-999.0,98,0.00,,,0.00,Rainwise IP-100,2013-03-26 11:13:00,
2013-03-26 04:18:00,37.7,38.0,29.19,WSW,247,1.4,-999.0,98,0.00,,,0.00,Rainwise IP-100,2013-03-26 11:18:00,
2013-03-26 04:23:00,37.8,37.0,29.18,WSW,247,0.0,-999.0,97,0.00,,,0.00,Rainwise IP-100,2013-03-26 11:23:00,
2013-03-26 04:28:00,37.9,37.0,29.18,WSW,247,1.2,-999.0,97,0.00,,,0.00,Rainwise IP-100,2013-03-26 11:28:00,
2013-03-26 04:33:00,37.8,38.0,29.19,WSW,247,0.0,-999.0,98,0.00,,,0.00,Rainwise IP-100,2013-03-26 11:33:00,
2013-03-26 04:38:00,37.7,38.0,29.19,WSW,247,1.9,-999.0,98,0.00,,,0.00,Rainwise IP-100,2013-03-26 11:38:00,
2013-03-26 04:43:00,37.6,38.0,29.19,WSW,247,0.0,-999.0,98,0.00,,,0.00,Rainwise IP-100,2013-03-26 11:43:00,
2013-03-26 04:48:00,37.6,38.0,29.19,WSW,247,0.0,-999.0,98,0.00,,,0.00,Rainwise IP-100,2013-03-26 11:48:00,
2013-03-26 04:53:00,37.8,38.0,29.19,WSW,247,0.0,-999.0,98,0.00,,,0.00,Rainwise IP-100,2013-03-26 11:53:00,
2013-03-26 04:58:00,37.9,38.0,29.19,WSW,247,0.0,-999.0,98,0.00,,,0.00,Rainwise IP-100,2013-03-26 11:58:00,
2013-03-26 05:03:00,37.8,38.0,29.20,WSW,247,1.6,-999.0,98,0.00,,,0.00,Rainwise IP-100,2013-03-26 12:03:00,
2013-03-26 05:08:00,37.6,38.0,29.19,WSW,247,0.0,-999.0,98,0.00,,,0.00,Rainwise IP-100,2013-03-26 12:08:00,
2013-03-26 05:13:00,37.3,37.0,29.20,WSW,247,0.0,-999.0,98,0.00,,,0.00,Rainwise IP-100,2013-03-26 12:13:00,
2013-03-26 05:18:00,37.4,37.0,29.19,WSW,247,0.0,-999.0,99,0.00,,,0.00,Rainwise IP-100,2013-03-26 12:18:00,
2013-03-26 05:23:00,37.5,38.0,29.20,WSW,247,1.4,-999.0,99,0.00,,,0.00,Rainwise IP-100,2013-03-26 12:23:00,
2013-03-26 05:28:00,37.5,38.0,29.20,WSW,247,0.0,-999.0,99,0.00,,,0.00,Rainwise IP-100,2013-03-26 12:28:00,
2013-03-26 05:33:00,37.3,37.0,29.19,WSW,247,1.6,-999.0,99,0.00,,,0.00,Rainwise IP-100,2013-03-26 12:33:00,
2013-03-26 05:38:00,37.0,37.0,29.20,WSW,247,1.6,-999.0,99,0.00,,,0.00,Rainwise IP-100,2013-03-26 12:38:00,
2013-03-26 05:43:00,36.9,37.0,29.20,WSW,247,0.0,-999.0,98,0.00,,,0.00,Rainwise IP-100,2013-03-26 12:43:00,
2013-03-26 05:48:00,37.2,37.0,29.20,WSW,247,0.0,-999.0,98,0.00,,,0.00,Rainwise IP-100,2013-03-26 12:48:00,
2013-03-26 05:53:00,37.4,37.0,29.20,WSW,247,0.0,-999.0,99,0.00,,,0.00,Rainwise IP-100,2013-03-26 12:53:00,
2013-03-26 05:58:00,37.3,37.0,29.20,WSW,247,0.0,-999.0,99,0.00,,,0.00,Rainwise IP-100,2013-03-26 12:58:00,
2013-03-26 06:03:00,37.0,37.0,29.20,WSW,247,0.0,-999.0,99,0.00,,,0.00,Rainwise IP-100,2013-03-26 13:03:00,
2013-03-26 06:08:00,36.8,37.0,29.20,WSW,247,1.2,-999.0,99,0.00,,,0.00,Rainwise IP-100,2013-03-26 13:08:00,
2013-03-26 06:13:00,36.6,37.0,29.20,WSW,247,0.0,-999.0,99,0.00,,,0.00,Rainwise IP-100,2013-03-26 13:13:00,
2013-03-26 06:18:00,36.7,37.0,29.20,WSW,247,0.0,-999.0,99,0.00,,,0.00,Rainwise IP-100,2013-03-26 13:18:00,
2013-03-26 06:23:00,36.8,37.0,29.20,WSW,247,0.0,-999.0,99,0.00,,,0.00,Rainwise IP-100,2013-03-26 13:23:00,
2013-03-26 06:28:00,36.6,37.0,29.20,WSW,247,2.6,-999.0,99,0.00,,,0.00,Rainwise IP-100,2013-03-26 13:28:00,
2013-03-26 06:33:00,36.6,37.0,29.20,WSW,247,1.2,-999.0,99,0.00,,,0.00,Rainwise IP-100,2013-03-26 13:33:00,
2013-03-26 06:38:00,36.7,37.0,29.20,WSW,247,0.0,-999.0,99,0.00,,,0.00,Rainwise IP-100,2013-03-26 13:38:00,
2013-03-26 06:43:00,36.7,37.0,29.20,WSW,247,0.0,-999.0,99,0.00,,,0.00,Rainwise IP-100,2013-03-26 13:43:00,
2013-03-26 06:48:00,36.6,37.0,29.20,WSW,247,0.0,-999.0,99,0.00,,,0.00,Rainwise IP-100,2013-03-26 13:48:00,
2013-03-26 06:53:00,36.4,36.0,29.20,WSW,247,0.0,-999.0,99,0.00,,,0.00,Rainwise IP-100,2013-03-26 13:53:00,
2013-03-26 06:58:00,36.4,36.0,29.21,WSW,247,1.4,-999.0,99,0.00,,,0.00,Rainwise IP-100,2013-03-26 13:58:00,
2013-03-26 07:03:00,36.2,36.0,29.21,WSW,247,1.6,-999.0,99,0.00,,,0.00,Rainwise IP-100,2013-03-26 14:03:00,
2013-03-26 07:08:00,36.3,36.0,29.21,WSW,247,0.0,-999.0,99,0.00,,,0.00,Rainwise IP-100,2013-03-26 14:08:00,
2013-03-26 07:13:00,36.7,37.0,29.21,WSW,247,0.0,-999.0,99,0.00,,,0.00,Rainwise IP-100,2013-03-26 14:13:00,
2013-03-26 07:18:00,37.3,37.0,29.21,WSW,247,0.0,-999.0,99,0.00,,,0.00,Rainwise IP-100,2013-03-26 14:18:00,
2013-03-26 07:23:00,37.7,38.0,29.21,WSW,247,0.0,-999.0,99,0.00,,,0.00,Rainwise IP-100,2013-03-26 14:23:00,
2013-03-26 07:28:00,38.1,38.0,29.21,WSW,247,0.0,-999.0,100,0.00,,,0.00,Rainwise IP-100,2013-03-26 14:28:00,
2013-03-26 07:33:00,38.7,39.0,29.22,WSW,247,0.0,-999.0,100,0.00,,,0.00,Rainwise IP-100,2013-03-26 14:33:00,
2013-03-26 07:38:00,39.1,39.0,29.22,WSW,247,0.0,-999.0,100,0.00,,,0.00,Rainwise IP-100,2013-03-26 14:38:00,
2013-03-26 07:43:00,39.1,39.0,29.22,WSW,247,0.0,-999.0,100,0.00,,,0.00,Rainwise IP-100,2013-03-26 14:43:00,
2013-03-26 07:49:00,39.4,39.0,29.22,WSW,247,0.0,-999.0,100,0.00,,,0.00,Rainwise IP-100,2013-03-26 14:49:00,
2013-03-26 07:54:00,39.7,40.0,29.22,WSW,247,0.0,-999.0,100,0.00,,,0.00,Rainwise IP-100,2013-03-26 14:54:00,
2013-03-26 07:59:00,39.9,40.0,29.22,WSW,247,0.0,-999.0,100,0.00,,,0.00,Rainwise IP-100,2013-03-26 14:59:00,
2013-03-26 08:04:00,40.3,40.0,29.22,ESE,112,0.0,-999.0,100,0.00,,,0.00,Rainwise IP-100,2013-03-26 15:04:00,
2013-03-26 08:09:00,40.6,41.0,29.22,ESE,112,0.0,-999.0,100,0.00,,,0.00,Rainwise IP-100,2013-03-26 15:09:00,
2013-03-26 08:14:00,40.8,41.0,29.22,ESE,112,0.0,-999.0,100,0.00,,,0.00,Rainwise IP-100,2013-03-26 15:14:00,
2013-03-26 08:19:00,41.4,41.0,29.22,ESE,112,0.0,-999.0,100,0.00,,,0.00,Rainwise IP-100,2013-03-26 15:19:00,
2013-03-26 08:24:00,42.0,42.0,29.22,ESE,112,0.0,-999.0,100,0.00,,,0.00,Rainwise IP-100,2013-03-26 15:24:00,
2013-03-26 08:29:00,42.4,42.0,29.22,ESE,112,0.0,-999.0,100,0.00,,,0.00,Rainwise IP-100,2013-03-26 15:29:00,
2013-03-26 08:34:00,42.7,43.0,29.23,ESE,112,1.2,-999.0,100,0.00,,,0.00,Rainwise IP-100,2013-03-26 15:34:00,
2013-03-26 08:39:00,43.0,43.0,29.22,ESE,112,1.4,-999.0,99,0.00,,,0.00,Rainwise IP-100,2013-03-26 15:39:00,
2013-03-26 08:44:00,43.2,43.0,29.23,ESE,112,0.0,-999.0,99,0.00,,,0.00,Rainwise IP-100,2013-03-26 15:44:00,
2013-03-26 08:49:00,43.4,43.0,29.23,ESE,112,1.6,-999.0,99,0.00,,,0.00,Rainwise IP-100,2013-03-26 15:49:00,
2013-03-26 08:54:00,43.8,44.0,29.23,ESE,112,0.0,-999.0,99,0.00,,,0.00,Rainwise IP-100,2013-03-26 15:54:00,
2013-03-26 08:59:00,44.3,43.0,29.23,SSE,157,1.2,-999.0,98,0.00,,,0.00,Rainwise IP-100,2013-03-26 15:59:00,
2013-03-26 09:04:00,45.0,44.0,29.24,East,90,3.0,-999.0,98,0.00,,,0.00,Rainwise IP-100,2013-03-26 16:04:00,
2013-03-26 09:09:00,45.5,45.0,29.23,SSE,157,1.6,-999.0,98,0.00,,,0.00,Rainwise IP-100,2013-03-26 16:09:00,
2013-03-26 09:14:00,45.8,45.0,29.23,ESE,112,2.8,-999.0,97,0.00,,,0.00,Rainwise IP-100,2013-03-26 16:14:00,
2013-03-26 09:19:00,46.1,45.0,29.23,ENE,67,2.1,-999.0,96,0.00,,,0.00,Rainwise IP-100,2013-03-26 16:19:00,
2013-03-26 09:24:00,46.5,45.0,29.24,SSE,157,3.3,-999.0,95,0.00,,,0.00,Rainwise IP-100,2013-03-26 16:24:00,
2013-03-26 09:29:00,47.3,46.0,29.24,SSE,157,2.1,-999.0,94,0.00,,,0.00,Rainwise IP-100,2013-03-26 16:29:00,
2013-03-26 09:34:00,48.4,47.0,29.24,SSE,157,0.0,-999.0,93,0.00,,,0.00,Rainwise IP-100,2013-03-26 16:34:00,
2013-03-26 09:39:00,49.5,47.5,29.23,ESE,112,3.3,-999.0,93,0.00,,,0.00,Rainwise IP-100,2013-03-26 16:39:00,
2013-03-26 09:44:00,49.7,47.5,29.23,ENE,67,2.6,-999.0,92,0.00,,,0.00,Rainwise IP-100,2013-03-26 16:44:00,
2013-03-26 09:49:00,50.2,47.0,29.24,SSE,157,0.0,-999.0,90,0.00,,,0.00,Rainwise IP-100,2013-03-26 16:49:00,
2013-03-26 09:54:00,50.9,48.0,29.23,SSE,157,1.2,-999.0,89,0.00,,,0.00,Rainwise IP-100,2013-03-26 16:54:00,
2013-03-26 09:59:00,50.8,47.5,29.23,ESE,112,3.3,-999.0,86,0.00,,,0.00,Rainwise IP-100,2013-03-26 16:59:00,
2013-03-26 10:04:00,51.3,47.0,29.23,SSE,157,2.1,-999.0,85,0.00,,,0.00,Rainwise IP-100,2013-03-26 17:04:00,
2013-03-26 10:09:00,52.5,47.5,29.23,SSW,202,2.1,-999.0,83,0.00,,,0.00,Rainwise IP-100,2013-03-26 17:09:00,
2013-03-26 10:14:00,53.0,47.0,29.23,ESE,112,3.0,-999.0,80,0.00,,,0.00,Rainwise IP-100,2013-03-26 17:14:00,
2013-03-26 10:19:00,53.0,47.0,29.24,SSE,157,2.1,-999.0,79,0.00,,,0.00,Rainwise IP-100,2013-03-26 17:19:00,
2013-03-26 10:24:00,53.0,46.0,29.24,East,90,4.0,-999.0,78,0.00,,,0.00,Rainwise IP-100,2013-03-26 17:24:00,
2013-03-26 10:29:00,52.5,46.0,29.23,East,90,2.8,-999.0,78,0.00,,,0.00,Rainwise IP-100,2013-03-26 17:29:00,
2013-03-26 10:34:00,52.6,46.0,29.24,SSE,157,2.6,-999.0,78,0.00,,,0.00,Rainwise IP-100,2013-03-26 17:34:00,
2013-03-26 10:39:00,54.1,47.5,29.24,SW,225,2.1,-999.0,78,0.00,,,0.00,Rainwise IP-100,2013-03-26 17:39:00,
2013-03-26 10:44:00,55.3,47.5,29.24,SSE,157,1.4,-999.0,76,0.00,,,0.00,Rainwise IP-100,2013-03-26 17:44:00,
2013-03-26 10:49:00,55.6,47.5,29.23,SSE,157,1.4,-999.0,74,0.00,,,0.00,Rainwise IP-100,2013-03-26 17:49:00,
2013-03-26 10:54:00,56.3,47.5,29.23,SSE,157,4.2,-999.0,72,0.00,,,0.00,Rainwise IP-100,2013-03-26 17:54:00,
2013-03-26 10:59:00,56.7,47.0,29.23,SSE,157,2.3,-999.0,70,0.00,,,0.00,Rainwise IP-100,2013-03-26 17:59:00,
2013-03-26 11:04:00,56.8,47.0,29.23,SE,135,1.9,-999.0,69,0.00,,,0.00,Rainwise IP-100,2013-03-26 18:04:00,
2013-03-26 11:09:00,57.3,47.5,29.23,SSE,157,2.6,-999.0,68,0.00,,,0.00,Rainwise IP-100,2013-03-26 18:09:00,
2013-03-26 11:14:00,57.5,47.5,29.23,SSE,157,2.3,-999.0,68,0.00,,,0.00,Rainwise IP-100,2013-03-26 18:14:00,
2013-03-26 11:19:00,57.7,47.5,29.23,SSE,157,2.8,-999.0,68,0.00,,,0.00,Rainwise IP-100,2013-03-26 18:19:00,
2013-03-26 11:24:00,58.3,47.5,29.23,SSE,157,2.3,-999.0,67,0.00,,,0.00,Rainwise IP-100,2013-03-26 18:24:00,
2013-03-26 11:29:00,59.0,47.5,29.23,SSE,157,0.0,-999.0,66,0.00,,,0.00,Rainwise IP-100,2013-03-26 18:29:00,
2013-03-26 11:34:00,59.8,48.0,29.23,East,90,0.0,-999.0,65,0.00,,,0.00,Rainwise IP-100,2013-03-26 18:34:00,
2013-03-26 11:39:00,60.2,47.5,29.23,ESE,112,0.0,-999.0,63,0.00,,,0.00,Rainwise IP-100,2013-03-26 18:39:00,
2013-03-26 11:44:00,60.5,47.5,29.23,SSE,157,3.5,-999.0,62,0.00,,,0.00,Rainwise IP-100,2013-03-26 18:44:00,
2013-03-26 11:49:00,60.2,47.0,29.23,East,90,5.8,-999.0,62,0.00,,,0.00,Rainwise IP-100,2013-03-26 18:49:00,
2013-03-26 11:54:00,59.8,47.0,29.22,SSE,157,2.8,-999.0,62,0.00,,,0.00,Rainwise IP-100,2013-03-26 18:54:00,
2013-03-26 11:59:00,60.5,47.5,29.23,SSE,157,1.4,-999.0,62,0.00,,,0.00,Rainwise IP-100,2013-03-26 18:59:00,
2013-03-26 12:04:00,61.3,48.0,29.22,SSE,157,2.8,-999.0,62,0.00,,,0.00,Rainwise IP-100,2013-03-26 19:04:00,
2013-03-26 12:09:00,61.6,48.0,29.22,SSE,157,1.9,-999.0,62,0.00,,,0.00,Rainwise IP-100,2013-03-26 19:09:00,
2013-03-26 12:14:00,62.1,49.0,29.22,SSE,157,1.4,-999.0,62,0.00,,,0.00,Rainwise IP-100,2013-03-26 19:14:00,
2013-03-26 12:19:00,62.5,49.0,29.22,ENE,67,2.8,-999.0,61,0.00,,,0.00,Rainwise IP-100,2013-03-26 19:19:00,
2013-03-26 12:24:00,62.9,49.0,29.22,SSE,157,0.0,-999.0,61,0.00,,,0.00,Rainwise IP-100,2013-03-26 19:24:00,
2013-03-26 12:29:00,63.5,49.0,29.22,South,180,4.7,-999.0,59,0.00,,,0.00,Rainwise IP-100,2013-03-26 19:29:00,
2013-03-26 12:34:00,63.6,48.0,29.21,ESE,112,2.3,-999.0,58,0.00,,,0.00,Rainwise IP-100,2013-03-26 19:34:00,
2013-03-26 12:39:00,63.6,48.0,29.21,ENE,67,2.1,-999.0,58,0.00,,,0.00,Rainwise IP-100,2013-03-26 19:39:00,
2013-03-26 12:44:00,64.0,49.0,29.21,ESE,112,3.3,-999.0,58,0.00,,,0.00,Rainwise IP-100,2013-03-26 19:44:00,
2013-03-26 12:49:00,63.9,48.0,29.22,ENE,67,0.0,-999.0,57,0.00,,,0.00,Rainwise IP-100,2013-03-26 19:49:00,
2013-03-26 12:54:00,64.4,49.0,29.21,ESE,112,3.7,-999.0,57,0.00,,,0.00,Rainwise IP-100,2013-03-26 19:54:00,
2013-03-26 12:59:00,65.0,49.0,29.21,SSE,157,2.1,-999.0,57,0.00,,,0.00,Rainwise IP-100,2013-03-26 19:59:00,
2013-03-26 13:04:00,64.9,48.0,29.21,SE,135,2.3,-999.0,55,0.00,,,0.00,Rainwise IP-100,2013-03-26 20:04:00,
2013-03-26 13:09:00,65.3,48.0,29.21,SSE,157,2.8,-999.0,54,0.00,,,0.00,Rainwise IP-100,2013-03-26 20:09:00,
2013-03-26 13:14:00,65.3,47.5,29.21,SSE,157,5.1,-999.0,53,0.00,,,0.00,Rainwise IP-100,2013-03-26 20:14:00,
2013-03-26 13:19:00,65.6,47.5,29.21,WSW,247,5.8,-999.0,52,0.00,,,0.00,Rainwise IP-100,2013-03-26 20:19:00,
2013-03-26 13:24:00,66.3,47.0,29.20,SSW,202,3.3,-999.0,49,0.00,,,0.00,Rainwise IP-100,2013-03-26 20:24:00,
2013-03-26 13:29:00,66.7,46.0,29.21,WSW,247,5.1,-999.0,47,0.00,,,0.00,Rainwise IP-100,2013-03-26 20:29:00,
2013-03-26 13:34:00,66.6,46.0,29.21,WSW,247,8.4,-999.0,47,0.00,,,0.00,Rainwise IP-100,2013-03-26 20:34:00,
2013-03-26 13:39:00,66.5,47.0,29.20,SSE,157,5.1,-999.0,48,0.00,,,0.00,Rainwise IP-100,2013-03-26 20:39:00,
2013-03-26 13:44:00,66.3,46.0,29.20,SSW,202,4.2,-999.0,48,0.00,,,0.00,Rainwise IP-100,2013-03-26 20:44:00,
2013-03-26 13:49:00,66.4,46.0,29.20,South,180,2.6,-999.0,48,0.00,,,0.00,Rainwise IP-100,2013-03-26 20:49:00,
2013-03-26 13:54:00,66.6,47.0,29.20,SSW,202,8.6,-999.0,49,0.00,,,0.00,Rainwise IP-100,2013-03-26 20:54:00,
2013-03-26 13:59:00,66.7,47.0,29.20,WSW,247,3.5,-999.0,49,0.00,,,0.00,Rainwise IP-100,2013-03-26 20:59:00,
2013-03-26 14:04:00,66.9,47.0,29.20,SW,225,5.1,-999.0,48,0.00,,,0.00,Rainwise IP-100,2013-03-26 21:04:00,
2013-03-26 14:09:00,66.7,47.0,29.20,ESE,112,6.5,-999.0,48,0.00,,,0.00,Rainwise IP-100,2013-03-26 21:09:00,
2013-03-26 14:14:00,66.8,47.0,29.20,SW,225,3.3,-999.0,48,0.00,,,0.00,Rainwise IP-100,2013-03-26 21:14:00,
2013-03-26 14:19:00,66.9,47.0,29.19,SSE,157,3.7,-999.0,48,0.00,,,0.00,Rainwise IP-100,2013-03-26 21:19:00,
2013-03-26 14:24:00,67.0,47.0,29.19,SE,135,5.1,-999.0,48,0.00,,,0.00,Rainwise IP-100,2013-03-26 21:24:00,
2013-03-26 14:29:00,67.4,47.5,29.19,SSW,202,5.4,-999.0,49,0.00,,,0.00,Rainwise IP-100,2013-03-26 21:29:00,
2013-03-26 14:34:00,67.6,47.5,29.18,SW,225,2.1,-999.0,48,0.00,,,0.00,Rainwise IP-100,2013-03-26 21:34:00,
2013-03-26 14:39:00,67.9,47.5,29.18,SSW,202,3.3,-999.0,48,0.00,,,0.00,Rainwise IP-100,2013-03-26 21:39:00,
2013-03-26 14:44:00,68.2,47.0,29.18,SSE,157,4.7,-999.0,47,0.00,,,0.00,Rainwise IP-100,2013-03-26 21:44:00,
2013-03-26 14:49:00,68.2,47.5,29.18,SSE,157,9.8,-999.0,48,0.00,,,0.00,Rainwise IP-100,2013-03-26 21:49:00,
2013-03-26 14:54:00,67.5,47.0,29.18,South,180,6.3,-999.0,47,0.00,,,0.00,Rainwise IP-100,2013-03-26 21:54:00,
2013-03-26 14:59:00,67.3,47.5,29.18,SSE,157,6.8,-999.0,48,0.00,,,0.00,Rainwise IP-100,2013-03-26 21:59:00,
2013-03-26 15:04:00,67.6,47.5,29.17,SE,135,6.5,-999.0,48,0.00,,,0.00,Rainwise IP-100,2013-03-26 22:04:00,
2013-03-26 15:09:00,67.3,47.0,29.18,SW,225,8.2,-999.0,47,0.00,,,0.00,Rainwise IP-100,2013-03-26 22:09:00,
2013-03-26 15:14:00,67.8,47.0,29.17,SSE,157,4.9,-999.0,47,0.00,,,0.00,Rainwise IP-100,2013-03-26 22:14:00,
2013-03-26 15:19:00,68.3,47.5,29.17,SSW,202,4.0,-999.0,47,0.00,,,0.00,Rainwise IP-100,2013-03-26 22:19:00,
2013-03-26 15:24:00,68.3,47.0,29.17,WNW,292,3.3,-999.0,46,0.00,,,0.00,Rainwise IP-100,2013-03-26 22:24:00,
2013-03-26 15:29:00,68.4,47.0,29.17,SSE,157,9.6,-999.0,45,0.00,,,0.00,Rainwise IP-100,2013-03-26 22:29:00,
2013-03-26 15:34:00,68.2,46.0,29.18,SSW,202,3.3,-999.0,45,0.00,,,0.00,Rainwise IP-100,2013-03-26 22:34:00,
2013-03-26 15:39:00,68.3,47.5,29.18,West,270,2.8,-999.0,47,0.00,,,0.00,Rainwise IP-100,2013-03-26 22:39:00,
2013-03-26 15:44:00,68.4,47.5,29.17,WSW,247,6.3,-999.0,47,0.00,,,0.00,Rainwise IP-100,2013-03-26 22:44:00,
2013-03-26 15:49:00,68.2,47.0,29.17,SSE,157,6.1,-999.0,46,0.00,,,0.00,Rainwise IP-100,2013-03-26 22:49:00,
2013-03-26 15:54:00,68.4,47.0,29.18,SW,225,4.2,-999.0,46,0.00,,,0.00,Rainwise IP-100,2013-03-26 22:54:00,
2013-03-26 15:59:00,68.6,47.0,29.17,WSW,247,9.3,-999.0,46,0.00,,,0.00,Rainwise IP-100,2013-03-26 22:59:00,
2013-03-26 16:04:00,68.4,47.0,29.17,SSW,202,5.1,-999.0,45,0.00,,,0.00,Rainwise IP-100,2013-03-26 23:04:00,
2013-03-26 16:09:00,68.4,47.0,29.17,South,180,4.2,-999.0,45,0.00,,,0.00,Rainwise IP-100,2013-03-26 23:09:00,
2013-03-26 16:14:00,68.1,47.0,29.17,WSW,247,4.2,-999.0,46,0.00,,,0.00,Rainwise IP-100,2013-03-26 23:14:00,
2013-03-26 16:19:00,68.5,47.0,29.17,SSW,202,8.6,-999.0,46,0.00,,,0.00,Rainwise IP-100,2013-03-26 23:19:00,
2013-03-26 16:24:00,68.6,47.0,29.17,WSW,247,3.0,-999.0,46,0.00,,,0.00,Rainwise IP-100,2013-03-26 23:24:00,
2013-03-26 16:29:00,68.5,47.5,29.17,SSW,202,4.4,-999.0,47,0.00,,,0.00,Rainwise IP-100,2013-03-26 23:29:00,
2013-03-26 16:34:00,68.6,48.0,29.17,SW,225,6.5,-999.0,48,0.00,,,0.00,Rainwise IP-100,2013-03-26 23:34:00,
2013-03-26 16:39:00,68.7,48.0,29.17,West,270,2.3,-999.0,48,0.00,,,0.00,Rainwise IP-100,2013-03-26 23:39:00,
2013-03-26 16:44:00,68.9,47.5,29.17,SW,225,2.8,-999.0,47,0.00,,,0.00,Rainwise IP-100,2013-03-26 23:44:00,
2013-03-26 16:49:00,68.7,47.5,29.17,SW,225,3.5,-999.0,47,0.00,,,0.00,Rainwise IP-100,2013-03-26 23:49:00,
2013-03-26 16:54:00,67.9,47.0,29.17,SSW,202,4.4,-999.0,46,0.00,,,0.00,Rainwise IP-100,2013-03-26 23:54:00,
2013-03-26 16:59:00,67.2,46.0,29.17,WSW,247,4.4,-999.0,47,0.00,,,0.00,Rainwise IP-100,2013-03-26 23:59:00,
2013-03-26 17:04:00,66.8,46.0,29.17,WSW,247,2.6,-999.0,47,0.00,,,0.00,Rainwise IP-100,2013-03-27 00:04:00,
2013-03-26 17:10:00,66.3,46.0,29.17,SW,225,2.8,-999.0,47,0.00,,,0.00,Rainwise IP-100,2013-03-27 00:10:00,
2013-03-26 17:15:00,65.9,45.0,29.17,WSW,247,3.7,-999.0,47,0.00,,,0.00,Rainwise IP-100,2013-03-27 00:15:00,
2013-03-26 17:20:00,65.5,45.0,29.17,WSW,247,5.8,-999.0,47,0.00,,,0.00,Rainwise IP-100,2013-03-27 00:20:00,
2013-03-26 17:25:00,65.1,44.0,29.17,WSW,247,2.6,-999.0,47,0.00,,,0.00,Rainwise IP-100,2013-03-27 00:25:00,
2013-03-26 17:29:00,64.7,44.0,29.17,SSW,202,4.4,-999.0,47,0.00,,,0.00,Rainwise IP-100,2013-03-27 00:29:00,
2013-03-26 17:34:00,64.5,44.0,29.17,SW,225,6.3,-999.0,47,0.00,,,0.00,Rainwise IP-100,2013-03-27 00:34:00,
2013-03-26 17:40:00,64.6,44.0,29.17,SSW,202,7.7,-999.0,47,0.00,,,0.00,Rainwise IP-100,2013-03-27 00:40:00,
2013-03-26 17:45:00,65.1,45.0,29.17,SSW,202,3.7,-999.0,48,0.00,,,0.00,Rainwise IP-100,2013-03-27 00:45:00,
2013-03-26 17:50:00,65.3,45.0,29.17,SSW,202,3.5,-999.0,47,0.00,,,0.00,Rainwise IP-100,2013-03-27 00:50:00,
2013-03-26 17:55:00,65.8,45.0,29.16,WSW,247,9.1,-999.0,47,0.00,,,0.00,Rainwise IP-100,2013-03-27 00:55:00,
2013-03-26 18:00:00,66.4,45.0,29.17,West,270,3.5,-999.0,46,0.00,,,0.00,Rainwise IP-100,2013-03-27 01:00:00,
2013-03-26 18:05:00,66.6,45.0,29.16,WSW,247,4.0,-999.0,46,0.00,,,0.00,Rainwise IP-100,2013-03-27 01:05:00,
2013-03-26 18:10:00,66.4,45.0,29.17,West,270,3.3,-999.0,46,0.00,,,0.00,Rainwise IP-100,2013-03-27 01:10:00,
2013-03-26 18:15:00,66.0,44.0,29.16,WSW,247,4.0,-999.0,45,0.00,,,0.00,Rainwise IP-100,2013-03-27 01:15:00,
2013-03-26 18:20:00,65.8,44.0,29.17,West,270,1.9,-999.0,45,0.00,,,0.00,Rainwise IP-100,2013-03-27 01:20:00,
2013-03-26 18:25:00,65.4,43.0,29.17,WSW,247,5.8,-999.0,45,0.00,,,0.00,Rainwise IP-100,2013-03-27 01:25:00,
2013-03-26 18:30:00,64.8,44.0,29.17,WSW,247,3.7,-999.0,46,0.00,,,0.00,Rainwise IP-100,2013-03-27 01:30:00,
2013-03-26 18:35:00,63.8,43.0,29.17,WSW,247,4.0,-999.0,47,0.00,,,0.00,Rainwise IP-100,2013-03-27 01:35:00,
2013-03-26 18:40:00,62.9,43.0,29.17,SSW,202,0.0,-999.0,49,0.00,,,0.00,Rainwise IP-100,2013-03-27 01:40:00,
2013-03-26 18:45:00,62.3,44.0,29.17,SSW,202,2.3,-999.0,51,0.00,,,0.00,Rainwise IP-100,2013-03-27 01:45:00,
2013-03-26 18:50:00,61.7,44.0,29.18,SW,225,2.6,-999.0,52,0.00,,,0.00,Rainwise IP-100,2013-03-27 01:50:00,
2013-03-26 18:55:00,61.1,44.0,29.18,SW,225,3.3,-999.0,54,0.00,,,0.00,Rainwise IP-100,2013-03-27 01:55:00,
2013-03-26 19:00:00,60.5,44.0,29.18,WSW,247,2.1,-999.0,55,0.00,,,0.00,Rainwise IP-100,2013-03-27 02:00:00,
2013-03-26 19:05:00,59.6,44.0,29.18,WSW,247,2.8,-999.0,57,0.00,,,0.00,Rainwise IP-100,2013-03-27 02:05:00,
2013-03-26 19:10:00,58.7,45.0,29.18,SSW,202,1.6,-999.0,60,0.00,,,0.00,Rainwise IP-100,2013-03-27 02:10:00,
2013-03-26 19:15:00,58.2,44.0,29.18,SW,225,4.7,-999.0,60,0.00,,,0.00,Rainwise IP-100,2013-03-27 02:15:00,
2013-03-26 19:20:00,58.0,45.0,29.18,SSW,202,3.5,-999.0,61,0.00,,,0.00,Rainwise IP-100,2013-03-27 02:20:00,
2013-03-26 19:25:00,57.8,45.0,29.18,SW,225,2.1,-999.0,61,0.00,,,0.00,Rainwise IP-100,2013-03-27 02:25:00,
2013-03-26 19:30:00,57.9,45.0,29.18,WSW,247,3.5,-999.0,61,0.00,,,0.00,Rainwise IP-100,2013-03-27 02:30:00,
2013-03-26 19:35:00,57.7,44.0,29.18,SSE,157,0.0,-999.0,61,0.00,,,0.00,Rainwise IP-100,2013-03-27 02:35:00,
2013-03-26 19:40:00,57.4,45.0,29.18,WSW,247,2.3,-999.0,62,0.00,,,0.00,Rainwise IP-100,2013-03-27 02:40:00,
2013-03-26 19:45:00,57.1,44.0,29.18,WSW,247,3.0,-999.0,62,0.00,,,0.00,Rainwise IP-100,2013-03-27 02:45:00,
2013-03-26 19:50:00,56.5,44.0,29.18,SSW,202,4.2,-999.0,63,0.00,,,0.00,Rainwise IP-100,2013-03-27 02:50:00,
2013-03-26 19:55:00,56.2,44.0,29.19,SW,225,2.6,-999.0,64,0.00,,,0.00,Rainwise IP-100,2013-03-27 02:55:00,
2013-03-26 20:00:00,55.7,44.0,29.19,WSW,247,2.6,-999.0,65,0.00,,,0.00,Rainwise IP-100,2013-03-27 03:00:00,
2013-03-26 20:05:00,54.8,44.0,29.18,WSW,247,3.5,-999.0,67,0.00,,,0.00,Rainwise IP-100,2013-03-27 03:05:00,
2013-03-26 20:10:00,54.6,44.0,29.18,SSW,202,3.3,-999.0,67,0.00,,,0.00,Rainwise IP-100,2013-03-27 03:10:00,
2013-03-26 20:15:00,55.2,44.0,29.19,WSW,247,3.0,-999.0,65,0.00,,,0.00,Rainwise IP-100,2013-03-27 03:15:00,
2013-03-26 20:20:00,55.3,44.0,29.19,SW,225,4.2,-999.0,65,0.00,,,0.00,Rainwise IP-100,2013-03-27 03:20:00,
2013-03-26 20:25:00,54.2,43.0,29.19,WSW,247,0.0,-999.0,67,0.00,,,0.00,Rainwise IP-100,2013-03-27 03:25:00,
2013-03-26 20:30:00,53.3,44.0,29.18,WSW,247,3.0,-999.0,70,0.00,,,0.00,Rainwise IP-100,2013-03-27 03:30:00,
2013-03-26 20:35:00,52.4,43.0,29.18,WSW,247,1.4,-999.0,72,0.00,,,0.00,Rainwise IP-100,2013-03-27 03:35:00,
2013-03-26 20:40:00,51.8,43.0,29.19,WSW,247,0.0,-999.0,73,0.00,,,0.00,Rainwise IP-100,2013-03-27 03:40:00,
2013-03-26 20:45:00,51.6,44.0,29.19,WSW,247,1.6,-999.0,74,0.00,,,0.00,Rainwise IP-100,2013-03-27 03:45:00,
2013-03-26 20:50:00,51.3,43.0,29.19,WSW,247,0.0,-999.0,74,0.00,,,0.00,Rainwise IP-100,2013-03-27 03:50:00,
2013-03-26 20:55:00,50.8,44.0,29.19,WSW,247,1.2,-999.0,75,0.00,,,0.00,Rainwise IP-100,2013-03-27 03:55:00,
2013-03-26 21:00:00,50.3,43.0,29.19,WSW,247,2.3,-999.0,76,0.00,,,0.00,Rainwise IP-100,2013-03-27 04:00:00,
2013-03-26 21:01:00,50.2,42.0,29.19,WSW,247,1.4,-999.0,76,0.00,,,0.00,Rainwise IP-100,2013-03-27 04:01:00,
2013-03-26 21:07:00,49.6,43.0,29.19,WSW,247,0.0,-999.0,77,0.00,,,0.00,Rainwise IP-100,2013-03-27 04:07:00,
2013-03-26 21:11:00,49.1,42.0,29.19,WSW,247,0.0,-999.0,78,0.00,,,0.00,Rainwise IP-100,2013-03-27 04:11:00,
2013-03-26 21:17:00,48.7,43.0,29.19,WSW,247,1.4,-999.0,79,0.00,,,0.00,Rainwise IP-100,2013-03-27 04:17:00,
2013-03-26 21:22:00,48.3,42.0,29.19,WSW,247,0.0,-999.0,80,0.00,,,0.00,Rainwise IP-100,2013-03-27 04:22:00,
2013-03-26 21:27:00,48.0,43.0,29.19,WSW,247,1.4,-999.0,81,0.00,,,0.00,Rainwise IP-100,2013-03-27 04:27:00,
2013-03-26 21:32:00,47.7,42.0,29.20,WSW,247,0.0,-999.0,82,0.00,,,0.00,Rainwise IP-100,2013-03-27 04:32:00,
2013-03-26 21:36:00,47.3,42.0,29.20,NNW,337,1.6,-999.0,82,0.00,,,0.00,Rainwise IP-100,2013-03-27 04:36:00,
2013-03-26 21:41:00,47.0,42.0,29.20,NNW,337,0.0,-999.0,83,0.00,,,0.00,Rainwise IP-100,2013-03-27 04:41:00,
2013-03-26 21:46:00,47.1,42.0,29.19,NNW,337,0.0,-999.0,84,0.00,,,0.00,Rainwise IP-100,2013-03-27 04:46:00,
2013-03-26 21:51:00,47.0,42.0,29.20,NNW,337,0.0,-999.0,84,0.00,,,0.00,Rainwise IP-100,2013-03-27 04:51:00,
2013-03-26 21:56:00,46.6,42.0,29.20,NNW,337,0.0,-999.0,84,0.00,,,0.00,Rainwise IP-100,2013-03-27 04:56:00,
2013-03-26 22:01:00,46.5,42.0,29.20,NNW,337,0.0,-999.0,85,0.00,,,0.00,Rainwise IP-100,2013-03-27 05:01:00,
2013-03-26 22:06:00,46.3,41.0,29.19,NNW,337,0.0,-999.0,85,0.00,,,0.00,Rainwise IP-100,2013-03-27 05:06:00,
2013-03-26 22:11:00,46.0,41.0,29.20,WSW,247,0.0,-999.0,85,0.00,,,0.00,Rainwise IP-100,2013-03-27 05:11:00,
2013-03-26 22:16:00,46.1,42.0,29.20,NW,315,0.0,-999.0,86,0.00,,,0.00,Rainwise IP-100,2013-03-27 05:16:00,
2013-03-26 22:21:00,45.8,42.0,29.20,West,270,0.0,-999.0,86,0.00,,,0.00,Rainwise IP-100,2013-03-27 05:21:00,
2013-03-26 22:26:00,45.4,41.0,29.20,West,270,2.3,-999.0,87,0.00,,,0.00,Rainwise IP-100,2013-03-27 05:26:00,
2013-03-26 22:31:00,45.4,41.0,29.20,West,270,0.0,-999.0,88,0.00,,,0.00,Rainwise IP-100,2013-03-27 05:31:00,
2013-03-26 22:36:00,45.2,41.0,29.19,West,270,2.1,-999.0,88,0.00,,,0.00,Rainwise IP-100,2013-03-27 05:36:00,
2013-03-26 22:41:00,44.9,41.0,29.19,West,270,1.9,-999.0,88,0.00,,,0.00,Rainwise IP-100,2013-03-27 05:41:00,
2013-03-26 22:46:00,44.6,41.0,29.20,West,270,1.6,-999.0,88,0.00,,,0.00,Rainwise IP-100,2013-03-27 05:46:00,
2013-03-26 22:51:00,44.6,42.0,29.20,SE,135,0.0,-999.0,89,0.00,,,0.00,Rainwise IP-100,2013-03-27 05:51:00,
2013-03-26 22:56:00,44.6,42.0,29.20,SE,135,0.0,-999.0,89,0.00,,,0.00,Rainwise IP-100,2013-03-27 05:56:00,
2013-03-26 23:01:00,44.6,42.0,29.20,SSW,202,1.4,-999.0,90,0.00,,,0.00,Rainwise IP-100,2013-03-27 06:01:00,
2013-03-26 23:06:00,44.5,42.0,29.20,SSW,202,0.0,-999.0,90,0.00,,,0.00,Rainwise IP-100,2013-03-27 06:06:00,
2013-03-26 23:11:00,44.3,41.0,29.20,SSW,202,0.0,-999.0,90,0.00,,,0.00,Rainwise IP-100,2013-03-27 06:11:00,
2013-03-26 23:16:00,44.2,41.0,29.20,SSW,202,0.0,-999.0,91,0.00,,,0.00,Rainwise IP-100,2013-03-27 06:16:00,
2013-03-26 23:22:00,44.2,41.0,29.20,SSW,202,0.0,-999.0,91,0.00,,,0.00,Rainwise IP-100,2013-03-27 06:22:00,
2013-03-26 23:27:00,44.0,42.0,29.20,SSW,202,2.1,-999.0,92,0.00,,,0.00,Rainwise IP-100,2013-03-27 06:27:00,
2013-03-26 23:32:00,43.9,42.0,29.20,SSW,202,0.0,-999.0,92,0.00,,,0.00,Rainwise IP-100,2013-03-27 06:32:00,
2013-03-26 23:37:00,43.9,42.0,29.20,SW,225,0.0,-999.0,92,0.00,,,0.00,Rainwise IP-100,2013-03-27 06:37:00,
2013-03-26 23:42:00,43.6,42.0,29.20,SW,225,1.2,-999.0,92,0.00,,,0.00,Rainwise IP-100,2013-03-27 06:42:00,
2013-03-26 23:47:00,43.5,42.0,29.20,SW,225,1.6,-999.0,92,0.00,,,0.00,Rainwise IP-100,2013-03-27 06:47:00,
2013-03-26 23:52:00,43.3,41.0,29.20,WSW,247,2.6,-999.0,92,0.00,,,0.00,Rainwise IP-100,2013-03-27 06:52:00,
2013-03-26 23:57:00,43.3,41.0,29.19,WSW,247,0.0,-999.0,92,0.00,,,0.00,Rainwise IP-100,2013-03-27 06:57:00,